Date String (YYYY-MM-DD hh:mm:ss) UTC,Instrument flags,absolute air pressure of the measurement (hPa),sample flow rate (lpm),inlet stack bypass flow (lpm),air temperature of the measurement (°C),ambient temperature measured by the external sensor (°C),aerosol sample conditioner tube jacket temperature (°C),OPC LED temperature (°C),internal box temperature (°C),relative humidity of the measurement (%),span deviation,mass concentration of particles derived from Lorenz-Mie calculation of OPC scattering (μg/m³),mass concentration of particles derived from Lorenz-Mie calculation of OPC scattering (μg/m³),mass concentration of particles derived from Lorenz-Mie calculation of OPC scattering (μg/m³)
DateTimeUTC,F1_M11,P_M11,Q1_M11,Q2_M11,T1_M11,T2_M11,T3_M11,T4_M11,T5_M11,U1_M11,ZSPAN_M11,X0_M11,X2_M11,X1_M11
2024-01-21 16:00:00,SystemResetWarning,0822.2,5.00,000.00,019.7,019.1,000.0,028.1,020.9,17.3,0000.0,0001.18,0000.83,0000.65
2024-01-21 16:01:00,SystemResetWarning,0822.2,5.01,000.00,019.7,019.1,000.0,028.1,020.9,17.3,0000.0,0001.17,0000.81,0000.62
2024-01-21 16:02:00,SystemResetWarning,0822.2,5.01,000.00,019.7,019.1,000.0,028.1,020.9,17.3,0000.0,0001.12,0000.77,0000.59
2024-01-21 16:03:00,SystemResetWarning,0822.2,4.99,000.00,019.7,019.1,000.0,028.1,020.9,17.4,0000.0,0001.11,0000.76,0000.58
2024-01-21 16:04:00,SystemResetWarning,0822.2,4.99,000.00,019.7,019.1,000.0,028.1,020.9,17.5,0000.0,0001.13,0000.77,0000.57
2024-01-21 16:05:00,SystemResetWarning,0822.2,4.99,000.00,019.7,019.1,000.0,028.1,020.9,17.4,0000.0,0001.12,0000.77,0000.56
2024-01-21 16:06:00,SystemResetWarning,0822.2,5.00,000.00,019.7,019.1,000.0,028.1,021.0,17.3,0000.0,0001.13,0000.76,0000.55
2024-01-21 16:07:00,SystemResetWarning,0822.2,5.00,000.00,019.7,019.1,000.0,028.1,021.0,17.3,0000.0,0001.77,0000.76,0000.55
2024-01-21 16:08:00,SystemResetWarning,0822.2,5.00,000.00,019.7,019.1,000.0,028.1,021.0,17.3,0000.0,0001.89,0000.78,0000.56
2024-01-21 16:09:00,SystemResetWarning,0822.2,5.01,000.00,019.7,019.1,000.0,028.1,021.0,17.2,0000.0,0002.05,0000.90,0000.67
2024-01-21 16:10:00,SystemResetWarning,0822.3,5.00,000.00,019.7,019.1,000.0,028.1,021.0,17.2,0000.0,0002.56,0001.17,0000.94
2024-01-21 16:11:00,SystemResetWarning,0822.2,5.00,000.00,019.7,019.1,000.0,028.1,021.0,17.1,0000.0,0002.98,0001.45,0001.18
2024-01-21 16:12:00,SystemResetWarning,0822.2,5.00,000.00,019.7,019.1,000.0,028.1,021.0,17.1,0000.0,0003.46,0001.64,0001.37
2024-01-21 16:13:00,SystemResetWarning,0822.3,5.00,000.00,019.7,019.1,000.0,028.1,021.1,17.1,0000.0,0004.32,0001.86,0001.53
2024-01-21 16:14:00,SystemResetWarning,0822.3,5.00,000.00,019.7,019.2,000.0,028.1,021.1,17.1,0000.0,0004.98,0002.12,0001.76
2024-01-21 16:15:00,SystemResetWarning,0822.3,4.99,000.00,019.7,019.2,000.0,028.1,021.1,17.1,0000.0,0006.27,0002.39,0002.00
2024-01-21 16:16:00,SystemResetWarning,0822.3,5.00,000.00,019.7,019.2,000.0,028.1,021.1,17.1,0000.0,0007.46,0002.81,0002.37
2024-01-21 16:17:00,SystemResetWarning,0822.3,5.00,000.00,019.8,019.2,000.0,028.1,021.1,17.1,0000.0,0008.09,0003.22,0002.85
2024-01-21 16:18:00,SystemResetWarning,0822.3,5.00,000.00,019.8,019.2,000.0,028.1,021.1,17.0,0000.0,0008.57,0003.52,0003.23
2024-01-21 16:19:00,SystemResetWarning,0822.4,5.00,000.00,019.8,019.2,000.0,028.1,021.1,17.0,0000.0,0009.05,0003.83,0003.49
2024-01-21 16:20:00,SystemResetWarning,0822.4,5.00,000.00,019.8,019.2,000.0,028.1,021.1,16.9,0000.0,0009.63,0004.18,0003.80
2024-01-21 16:21:00,SystemResetWarning,0822.4,5.00,000.00,019.8,019.2,000.0,028.1,021.1,16.8,0000.0,0009.82,0004.35,0003.94
2024-01-21 16:22:00,SystemResetWarning,0822.4,5.00,000.00,019.8,019.2,000.0,028.1,021.1,16.7,0000.0,0010.04,0004.52,0004.09
2024-01-21 16:23:00,SystemResetWarning,0822.4,5.00,000.00,019.8,019.2,000.0,028.1,021.1,16.7,0000.0,0010.23,0004.75,0004.31
2024-01-21 16:24:00,SystemResetWarning,0822.4,5.00,000.00,019.8,019.2,000.0,028.1,021.1,16.7,0000.0,0010.22,0005.02,0004.57
2024-01-21 16:25:00,SystemResetWarning,0822.4,5.00,000.00,019.8,019.2,000.0,028.1,021.2,16.7,0000.0,0010.50,0005.28,0004.82
2024-01-21 16:26:00,SystemResetWarning,0822.4,5.00,000.00,019.8,019.2,000.0,028.1,021.2,16.6,0000.0,0010.19,0005.46,0005.00
2024-01-21 16:27:00,SystemResetWarning,0822.4,5.01,000.00,019.8,019.2,000.0,028.2,021.2,16.6,0000.0,0009.76,0005.56,0005.09
2024-01-21 16:28:00,SystemResetWarning,0822.4,5.00,000.00,019.9,019.3,000.0,028.2,021.2,16.6,0000.0,0009.86,0005.54,0005.07
2024-01-21 16:29:00,SystemResetWarning,0822.4,5.00,000.00,019.9,019.3,000.0,028.2,021.2,16.6,0000.0,0009.10,0005.41,0004.93
2024-01-21 16:30:00,SystemResetWarning,0822.4,5.00,000.00,019.9,019.3,000.0,028.2,021.2,16.7,0000.0,0008.83,0005.22,0004.76
2024-01-21 16:31:00,SystemResetWarning,0822.4,5.00,000.00,019.9,019.3,000.0,028.2,021.2,16.6,0000.0,0008.47,0004.97,0004.53
2024-01-21 16:32:00,SystemResetWarning,0822.4,5.00,000.00,019.9,019.3,000.0,028.2,021.2,16.5,0000.0,0008.13,0004.70,0004.29
2024-01-21 16:33:00,SystemResetWarning,0822.4,5.00,000.00,019.9,019.3,000.0,028.2,021.2,16.5,0000.0,0007.95,0004.49,0004.09
2024-01-21 16:34:00,SystemResetWarning,0822.4,5.00,000.00,019.9,019.3,000.0,028.2,021.2,16.6,0000.0,0007.87,0004.17,0003.79
2024-01-21 16:35:00,SystemResetWarning,0822.4,5.00,000.00,019.9,019.3,000.0,028.2,021.3,16.8,0000.0,0007.67,0003.86,0003.51
2024-01-21 16:36:00,SystemResetWarning,0822.4,5.00,000.00,019.9,019.3,000.0,028.2,021.3,17.3,0000.0,0007.26,0003.49,0003.17
2024-01-21 16:37:00,SystemResetWarning,0822.4,5.00,000.00,019.9,019.3,000.0,028.2,021.3,17.7,0000.0,0006.74,0003.20,0002.74
2024-01-21 16:38:00,SystemResetWarning,0822.4,5.00,000.00,019.9,019.4,000.0,028.2,021.3,18.2,0000.0,0006.52,0002.87,0002.36
2024-01-21 16:39:00,SystemResetWarning,0822.8,5.00,000.00,020.0,019.4,000.0,028.2,021.3,18.0,0000.0,0005.80,0002.44,0001.97
2024-01-21 16:40:00,SystemResetWarning,0822.9,5.00,000.00,019.9,019.3,000.0,028.2,021.3,18.0,0000.0,0004.92,0002.12,0001.70
2024-01-21 16:41:00,SystemResetWarning,0822.5,5.00,000.00,019.9,019.3,000.0,028.3,021.2,18.1,0000.0,0004.61,0001.86,0001.48
2024-01-21 16:42:00,SystemResetWarning,0822.5,5.00,000.00,019.9,019.3,000.0,028.3,021.3,17.9,0000.0,0004.14,0001.66,0001.30
2024-01-21 16:43:00,SystemResetWarning,0822.4,5.00,000.00,019.9,019.3,000.0,028.3,021.3,17.9,0000.0,0003.92,0001.51,0001.18
2024-01-21 16:44:00,SystemResetWarning,0822.5,4.99,000.00,019.9,019.4,000.0,028.3,021.3,17.7,0000.0,0003.79,0001.39,0001.08
2024-01-21 16:45:00,SystemResetWarning,0822.8,5.00,000.00,020.0,019.4,000.0,028.3,021.3,17.7,0000.0,0002.72,0001.24,0000.98
2024-01-21 16:46:00,SystemResetWarning,0823.0,5.00,000.00,020.0,019.4,000.0,028.3,021.3,17.5,0000.0,0002.44,0001.18,0000.93
2024-01-21 16:47:00,SystemResetWarning,0823.1,5.00,000.00,020.0,019.4,000.0,028.3,021.3,17.7,0000.0,0002.02,0001.11,0000.87
2024-01-21 16:48:00,SystemResetWarning,0823.0,5.00,000.00,020.0,019.4,000.0,028.3,021.3,18.3,0000.0,0001.90,0001.04,0000.81
2024-01-21 16:49:00,SystemResetWarning,0823.1,5.00,000.00,020.0,019.4,000.0,028.3,021.3,18.3,0000.0,0001.59,0000.98,0000.73
2024-01-21 16:50:00,SystemResetWarning,0823.1,5.01,000.00,020.0,019.4,000.0,028.3,021.3,18.3,0000.0,0001.49,0000.92,0000.68
2024-01-21 16:51:00,SystemResetWarning,0822.7,5.00,000.00,020.0,019.4,000.0,028.3,021.2,17.9,0000.0,0001.47,0000.91,0000.67
2024-01-21 16:52:00,SystemResetWarning,0822.7,4.99,000.00,020.0,019.4,000.0,028.3,021.3,17.8,0000.0,0001.47,0000.91,0000.68
2024-01-21 16:53:00,SystemResetWarning,0822.6,4.99,000.00,020.0,019.4,000.0,028.3,021.3,17.4,0000.0,0001.30,0000.87,0000.68
2024-01-21 16:54:00,SystemResetWarning,0822.8,4.99,000.00,020.0,019.4,000.0,028.3,021.3,17.5,0000.0,0001.24,0000.86,0000.68
2024-01-21 16:55:00,SystemResetWarning,0822.8,5.01,000.00,020.0,019.4,000.0,028.3,021.3,17.9,0000.0,0001.19,0000.82,0000.67
2024-01-21 16:56:00,SystemResetWarning,0822.7,5.01,000.00,020.0,019.4,000.0,028.3,021.3,17.8,0000.0,0001.52,0000.83,0000.68
2024-01-21 16:57:00,SystemResetWarning,0822.8,5.01,000.00,020.0,019.4,000.0,028.3,021.3,17.8,0000.0,0001.55,0000.86,0000.69
2024-01-21 16:58:00,SystemResetWarning,0822.8,4.99,000.00,020.0,019.4,000.0,028.3,021.3,17.4,0000.0,0001.57,0000.90,0000.74
2024-01-21 16:59:00,SystemResetWarning,0823.0,4.99,000.00,020.0,019.4,000.0,028.3,021.4,17.5,0000.0,0001.80,0000.98,0000.81
